Location: Newark
(52.3735°N, 16.9806°E)
Time: 11:08:36
(UTC+00:00)

ITAMSAT 1 - Visible Passes

Search period start: 06 December 2021 00:00
Search period end: 16 December 2021 00:00
Orbit: 784 x 796 km, 98.9° (Epoch: 05 December)

Date Brightness Start Highest point End Pass type
(mag) Time Alt. Az. Time Alt. Az. Time Alt. Az.
06 Dec 9.9 05:31:42 10° NE 05:36:10 28° E 05:40:36 10° SSE visible
06 Dec 9.1 15:18:24 10° E 15:21:36 17° NE 15:24:48 10° NNE visible
06 Dec 7.5 16:55:01 10° SSE 17:00:15 75° ENE 17:05:30 10° NNW visible
06 Dec 10.1 18:36:28 10° SW 18:40:15 20° W 18:44:06 10° NW visible
07 Dec 10.5 05:03:01 10° NE 05:06:18 17° E 05:09:33 10° SE visible
07 Dec 7.9 16:25:53 10° SE 16:30:51 46° ENE 16:35:51 10° N visible
07 Dec 9.3 18:05:44 10° SSW 18:10:26 33° W 18:15:11 10° NNW visible
08 Dec 8.5 15:57:07 10° ESE 16:01:34 29° ENE 16:06:02 10° N visible
08 Dec 8.3 17:35:37 10° S 17:40:45 56° WSW 17:45:56 10° NNW visible
09 Dec 9.6 05:42:30 10° NNE 05:47:13 33° E 05:51:53 10° SSE visible
09 Dec 8.9 15:28:48 10° E 15:32:24 19° NE 15:36:01 10° N visible
09 Dec 7.6 17:05:57 10° SSE 17:11:12 88° ENE 17:16:28 10° NNW visible
09 Dec 10.3 18:48:03 10° SW 18:51:22 17° W 18:54:42 10° NW visible
10 Dec 10.4 05:13:36 10° NE 05:17:24 20° E 05:21:09 10° SE visible
10 Dec 7.7 16:36:39 10° SE 16:41:45 54° ENE 16:46:52 10° N visible
10 Dec 9.6 18:17:02 10° SSW 18:21:29 28° W 18:25:59 10° NW visible
11 Dec 10.8 04:45:44 10° ENE 04:47:26 11° E 04:49:07 10° ESE visible
11 Dec 8.3 16:07:45 10° SE 16:12:25 34° ENE 16:17:06 10° N visible
11 Dec 8.6 17:46:44 10° S 17:51:45 46° W 17:56:49 10° NNW visible
12 Dec 9.3 05:53:20 10° NNE 05:58:15 39° E 06:03:07 10° SSE visible
12 Dec 8.8 15:39:16 10° ESE 15:43:13 22° NE 15:47:10 10° N visible
12 Dec 7.7 17:16:54 10° SSE 17:22:09 78° WSW 17:27:25 10° NNW visible
12 Dec 10.5 18:59:51 10° WSW 19:02:28 14° W 19:05:07 10° NW visible
13 Dec 10.2 05:24:17 10° NE 05:28:28 24° E 05:32:37 10° SE visible
13 Dec 9.2 15:11:20 10° E 15:14:07 15° NE 15:16:55 10° NNE visible
13 Dec 7.6 16:47:29 10° SSE 16:52:40 65° ENE 16:57:52 10° N visible
13 Dec 9.8 18:28:25 10° SW 18:32:33 23° W 18:36:43 10° NW visible
14 Dec 10.6 04:55:51 10° NE 04:58:33 14° E 05:01:15 10° ESE visible
14 Dec 8.1 16:18:27 10° SE 16:23:18 40° ENE 16:28:10 10° N visible
14 Dec 9.0 17:57:54 10° SSW 18:02:46 39° W 18:07:40 10° NNW visible
15 Dec 8.9 06:04:12 10° NNE 06:09:16 47° E 06:14:16 10° S visible
15 Dec 8.6 15:49:49 10° ESE 15:54:03 26° ENE 15:58:18 10° N visible
15 Dec 8.0 17:27:55 10° S 17:33:07 65° WSW 17:38:21 10° NNW visible
15 Dec 10.7 19:12:04 10° W 19:13:36 11° W 19:15:09 10° WNW visible
